User: anonymous   Login
Location: Lawrence
(38.9720°N, 95.2350°W)
Time: 22:31:26
(UTC-06:00)
Language:

JAS-1B - Orbit

View from above orbital plane
View from above orbital plane
View from above satellite
View from above satellite

Ground track
Ground track

The orbit data is extracted from the following two-line orbital elements,

1 20480U 90013C   17052.87180436 -.00000026  00000-0  23231-4 0  9993
2 20480  99.0335 207.7271 0539439 292.2717  62.2037 12.83414557266929
Epoch (UTC): 21 February 2017 20:55:23
Eccentricity: 0.0539439
inclination: 99.0335°
perigee height: 912 km
apogee height: 1743 km
right ascension of ascending node: 207.7271°
argument of perigee: 292.2717°
revolutions per day: 12.83414557
mean anomaly at epoch: 62.2037°
orbit number at epoch: 26692

The dashed part of the orbit path shows where the satellite is in the earth's shadow,  

DLR